Regional Weather Roundup
Issued by NWS Sioux Falls, SD

Home | Current Version | Previous Version | Text Only | Print | Product List | Glossary On
Versions: 1 2 3 4 5 6 7 8 9 10 11 12 13 14 15 16 17 18 19 20 21 22 23 24 25 26 27 28 29 30 31 32 33 34 35 36 37 38 39 40 41 42 43 44 45 46 47 48 49 50
000
ASUS43 KFSD 240610
RWRFSD

WEATHER ROUNDUP FOR SE SOUTH DAKOTA/SW MINNESOTA/NW IOWA
NATIONAL WEATHER SERVICE SIOUX FALLS SD
1200 AM CST FRI FEB 24 2017

NOTE: "FAIR" INDICATES FEW OR NO CLOUDS BELOW 12,000 FEET WITH NO
SIGNIFICANT WEATHER AND OR OBSTRUCTIONS TO VISIBILITY.


SDZ038>040-050-052>070-240700-
SOUTHEAST SOUTH DAKOTA

CITY           SKY/WX    TMP DP  RH WIND       PRES   REMARKS
BROOKINGS      CLOUDY    25  21  85 NE21G28   29.86S WCI  11
CHAMBERLAIN    CLOUDY    28  24  85 N21       29.95F WCI  15
6HR MIN TEMP:  28; 6HR MAX TEMP:  31;

HURON          CLOUDY    25  20  81 N17G29    29.95R WCI  12
6HR MIN TEMP:  25; 6HR MAX TEMP:  30;

MADISON        CLOUDY    25  25 100 NE26G33   29.85F WCI   9
MITCHELL       CLOUDY    28  22  78 N22       29.92R WCI  14
6HR MIN TEMP:  28; 6HR MAX TEMP:  30; 6HR PCP: TRACE;

SIOUX FALLS    LGT SNOW  28  26  92 N21G32    29.82F FOG     WCI  15
6HR MIN TEMP:  28; 6HR MAX TEMP:  30; 6HR PCP:  0.07;

WINNER         LGT SNOW  26  23  88 N17       29.93S FOG     WCI  13
YANKTON        CLOUDY    28  25  86 N20G29    29.78F VSB 1   WCI  15
$$

MNZ071-072-080-081-089-090-097-098-240700-
SOUTHWEST MINNESOTA

CITY           SKY/WX    TMP DP  RH WIND       PRES   REMARKS
FAIRMONT       LGT SNOW  27  26  96 N20G26    29.76F VSB 3/4 WCI  13
JACKSON        LGT SNOW  28  27  93 N25G32    29.77S VSB 1   WCI  14
LUVERNE        LGT SNOW  28  25  86 N18G26    29.80F WCI  16
MARSHALL       CLOUDY    28  22  78 NE18      29.90S WCI  15
6HR MIN TEMP:  28; 6HR MAX TEMP:  30;

MONTEVIDEO     CLOUDY    28  21  74 NE20G31   29.94F WCI  15
PIPESTONE      CLOUDY    27  21  80 NE23G31   29.82S WCI  12
REDWOOD FALLS  CLOUDY    29  19  66 NE15G25   29.87F WCI  18
WINDOM         LGT SNOW  27  25  93 N22G28    29.81S WCI  12
WORTHINGTON    LGT SNOW  26  25  96 N21G30    29.79S VSB 1   WCI  12
$$

IAZ001>003-012>014-020>022-031-032-NEZ013-014-SDZ071-240700-
NORTHWEST IOWA

CITY           SKY/WX    TMP DP  RH WIND       PRES   REMARKS
CHEROKEE       LGT SNOW  30  30 100 NE23G36   29.70F VSB 3/4 WCI  16
DENISON        SNOW      32  32 100 NE21G31   29.61R VSB 1/2 WCI  20
ESTHERVILLE    FOG       26  26 100 N28G33    29.73F VSB 3/4 WCI  10
LE MARS        SNOW      28  28 100 N17G25    29.76R VSB 1/4 WCI  16
ORANGE CITY    CLOUDY    27  27 100 NE20G28   29.75R WCI  13
SHELDON        LGT SNOW  27  27 100 N25       29.74F VSB 3/4 WCI  11
SIOUX CITY     SNOW      31  29  92 NE21G35   29.67F VSB 1/4 WCI  18
6HR MIN TEMP:  32; 6HR MAX TEMP:  34; 6HR PCP:  0.29;

SPENCER        FOG       28  26  92 N30G39    29.74R VSB 1/2 WCI  12
6HR MIN TEMP:  28; 6HR MAX TEMP:  31; 6HR PCP:  0.11;

STORM LAKE     MIX PCPN  28  28 100 NE29G39   29.66R VSB 1/4 WCI  13
$$

ABBREVIATIONS USED IN REMARKS
   TC - TEMPERATURE IN CELSIUS
  WCI - WIND CHILL INDEX
   HX - HEAT INDEX
  VSB - VISIBILITY





USA.gov is the U.S. government's official web portal to all federal, state and local government web resources and services.